RYR5ZE EGGP-EPMO

Flight info

Callsign RYR5ZE
Flight time N/A
Altitude 39000
Route BARTN L975 DESIG L603 LAMSO DCT GARLU DCT SUBIX L980 ADVAB P150 DOSIX
Aircraft B738/M-SDE2E3FGHIRWXY/LB1

Departure

Time N/A
Airport Liverpool John Lennon Airport (EGGP)

Arrival

Time 2026-05-07 17:20
Airport Warsaw Modlin Airport (EPMO)
Time Latitude Longitude Altitude Speed Heading
2026-05-07 16:06 52.85085 7.09428 39071 ft 458 kts 90°
2026-05-07 16:07 52.85201 7.19995 39077 ft 458 kts 90°
2026-05-07 16:07 52.85308 7.30562 39073 ft 459 kts 90°
2026-05-07 16:08 52.85405 7.41064 39076 ft 459 kts 90°
2026-05-07 16:08 52.85494 7.51640 39074 ft 459 kts 90°
2026-05-07 16:09 52.85573 7.62209 39077 ft 458 kts 90°
2026-05-07 16:09 52.85643 7.72760 39075 ft 458 kts 90°
2026-05-07 16:10 52.85702 7.83241 39080 ft 458 kts 90°
2026-05-07 16:10 52.85753 7.93782 39080 ft 458 kts 91°
2026-05-07 16:11 52.85795 8.04321 39088 ft 457 kts 91°
2026-05-07 16:11 52.85827 8.14841 39089 ft 457 kts 91°
2026-05-07 16:12 52.85850 8.25356 39087 ft 457 kts 91°
2026-05-07 16:12 52.85863 8.35817 39085 ft 457 kts 91°
2026-05-07 16:13 52.85867 8.46332 39086 ft 457 kts 91°
2026-05-07 16:13 52.85862 8.56861 39081 ft 457 kts 91°
2026-05-07 16:14 52.85850 8.67394 39081 ft 458 kts 91°
2026-05-07 16:14 52.85873 8.77943 39080 ft 458 kts 91°
2026-05-07 16:15 52.85903 8.88492 39078 ft 459 kts 91°
2026-05-07 16:15 52.85922 8.99012 39074 ft 459 kts 91°
2026-05-07 16:16 52.85926 9.09594 39076 ft 459 kts 91°
2026-05-07 16:16 52.85920 9.20131 39074 ft 460 kts 91°
2026-05-07 16:17 52.85903 9.30740 39071 ft 460 kts 91°
2026-05-07 16:17 52.85878 9.41338 39072 ft 461 kts 91°
2026-05-07 16:18 52.85843 9.51949 39073 ft 461 kts 92°
2026-05-07 16:18 52.85798 9.62512 39078 ft 461 kts 92°
2026-05-07 16:19 52.85744 9.73150 39080 ft 462 kts 92°
2026-05-07 16:19 52.85681 9.83811 39081 ft 462 kts 92°
2026-05-07 16:20 52.85608 9.94380 39079 ft 462 kts 92°
2026-05-07 16:20 52.85525 10.05050 39085 ft 463 kts 92°
2026-05-07 16:21 52.85433 10.15703 39069 ft 463 kts 92°
2026-05-07 16:21 52.85332 10.26333 39083 ft 463 kts 92°
2026-05-07 16:22 52.85220 10.37005 39074 ft 463 kts 92°
2026-05-07 16:22 52.85100 10.47601 39086 ft 464 kts 93°
2026-05-07 16:23 52.84969 10.58289 39067 ft 464 kts 93°
2026-05-07 16:23 52.84829 10.68978 39067 ft 463 kts 93°
2026-05-07 16:24 52.84680 10.79594 39074 ft 463 kts 93°
2026-05-07 16:24 52.84521 10.90254 39071 ft 462 kts 93°
2026-05-07 16:25 52.84354 11.00819 39071 ft 461 kts 93°
2026-05-07 16:25 52.84177 11.11433 39073 ft 461 kts 94°
2026-05-07 16:26 52.83989 11.22067 39066 ft 462 kts 94°
2026-05-07 16:26 52.83793 11.32692 39065 ft 462 kts 94°
2026-05-07 16:27 52.83588 11.43253 39068 ft 462 kts 94°
2026-05-07 16:27 52.83372 11.53888 39068 ft 462 kts 94°
2026-05-07 16:28 52.83147 11.64540 39062 ft 463 kts 94°
2026-05-07 16:28 52.82912 11.75186 39063 ft 463 kts 94°
2026-05-07 16:29 52.82669 11.85773 39064 ft 464 kts 94°
2026-05-07 16:29 52.82414 11.96449 39060 ft 464 kts 95°
2026-05-07 16:30 52.82150 12.07124 39061 ft 464 kts 95°
2026-05-07 16:30 52.81876 12.17800 39060 ft 465 kts 95°
2026-05-07 16:31 52.81594 12.28410 39058 ft 465 kts 95°
2026-05-07 16:31 52.81306 12.38888 39059 ft 465 kts 95°
2026-05-07 16:32 52.81003 12.49574 39053 ft 465 kts 95°
2026-05-07 16:32 52.80690 12.60280 39059 ft 466 kts 95°
2026-05-07 16:33 52.80370 12.70910 39059 ft 466 kts 95°
2026-05-07 16:33 52.80038 12.81609 39059 ft 466 kts 96°
2026-05-07 16:34 52.79695 12.92340 39067 ft 466 kts 96°
2026-05-07 16:34 52.79343 13.03047 39070 ft 467 kts 96°
2026-05-07 16:35 52.78981 13.13754 39069 ft 467 kts 96°
2026-05-07 16:35 52.78609 13.24484 39071 ft 467 kts 96°
2026-05-07 16:36 52.78229 13.35184 39075 ft 467 kts 96°
2026-05-07 16:36 52.77839 13.45860 39069 ft 467 kts 96°
2026-05-07 16:37 52.77438 13.56580 39078 ft 467 kts 96°
2026-05-07 16:37 52.77031 13.67217 39065 ft 468 kts 97°
2026-05-07 16:38 52.76614 13.77860 39064 ft 467 kts 97°
2026-05-07 16:38 52.76184 13.88599 39067 ft 467 kts 97°
2026-05-07 16:39 52.75745 13.99292 39073 ft 466 kts 97°
2026-05-07 16:39 52.75299 14.09922 39068 ft 466 kts 97°
2026-05-07 16:40 52.74842 14.20604 39064 ft 465 kts 97°
2026-05-07 16:40 52.74378 14.31212 39064 ft 465 kts 97°
2026-05-07 16:41 52.73903 14.41866 39063 ft 465 kts 97°
2026-05-07 16:41 52.73417 14.52530 39061 ft 465 kts 97°
2026-05-07 16:42 52.72921 14.63200 39060 ft 466 kts 97°
2026-05-07 16:42 52.72415 14.73878 39066 ft 467 kts 98°
2026-05-07 16:43 52.71903 14.84488 39054 ft 467 kts 98°
2026-05-07 16:43 52.71377 14.95199 39059 ft 468 kts 98°
2026-05-07 16:44 52.70840 15.05911 39052 ft 468 kts 98°
2026-05-07 16:44 52.70294 15.16626 39055 ft 469 kts 98°
2026-05-07 16:45 52.69740 15.27300 38879 ft 469 kts 98°
2026-05-07 16:45 52.69173 15.38030 38878 ft 469 kts 98°
2026-05-07 16:46 52.68597 15.48756 38870 ft 470 kts 98°
2026-05-07 16:46 52.68012 15.59449 38870 ft 470 kts 98°
2026-05-07 16:47 52.67415 15.70193 38866 ft 471 kts 99°
2026-05-07 16:47 52.66808 15.80948 38864 ft 471 kts 99°
2026-05-07 16:48 52.66194 15.91641 38860 ft 471 kts 99°
2026-05-07 16:48 52.65566 16.02410 38862 ft 471 kts 99°
2026-05-07 16:48 52.65249 16.07785 39043 ft 471 kts 99°
2026-05-07 16:49 52.64929 16.13158 39046 ft 471 kts 99°
2026-05-07 16:49 52.64392 16.22097 39046 ft 471 kts 99°
2026-05-07 16:50 52.63737 16.32854 39044 ft 471 kts 99°
2026-05-07 16:50 52.63072 16.43600 39043 ft 471 kts 99°
2026-05-07 16:51 52.62403 16.54255 39047 ft 471 kts 99°
2026-05-07 16:51 52.61718 16.65000 39041 ft 471 kts 99°
2026-05-07 16:52 52.61025 16.75733 39044 ft 470 kts 100°
2026-05-07 16:52 52.60323 16.86436 39043 ft 470 kts 100°
2026-05-07 16:53 52.59616 16.97071 39047 ft 470 kts 100°
2026-05-07 16:53 52.58894 17.07790 39039 ft 470 kts 100°
2026-05-07 16:54 52.58163 17.18483 39041 ft 470 kts 100°
2026-05-07 16:54 52.57425 17.29143 39035 ft 471 kts 100°
2026-05-07 16:55 52.56674 17.39845 39033 ft 471 kts 100°
2026-05-07 16:55 52.55918 17.50484 39028 ft 471 kts 100°
2026-05-07 16:56 52.55142 17.61237 38576 ft 479 kts 100°
2026-05-07 16:56 52.54747 17.66670 37999 ft 477 kts 101°
2026-05-07 16:56 52.53961 17.77405 36853 ft 474 kts 101°
2026-05-07 16:57 52.53563 17.82777 36286 ft 473 kts 101°
2026-05-07 16:57 52.53164 17.88135 35734 ft 472 kts 101°
2026-05-07 16:57 52.52762 17.93495 35192 ft 471 kts 101°
2026-05-07 16:57 52.52359 17.98835 34658 ft 470 kts 102°
2026-05-07 16:58 52.51954 18.04174 34134 ft 469 kts 102°
2026-05-07 16:58 52.51551 18.09452 33551 ft 468 kts 101°
2026-05-07 16:58 52.51366 18.14845 32936 ft 472 kts 94°
2026-05-07 16:58 52.51438 18.20230 32366 ft 471 kts 92°
2026-05-07 16:59 52.51564 18.25540 31800 ft 469 kts 92°
2026-05-07 16:59 52.51702 18.30891 31235 ft 470 kts 92°
2026-05-07 16:59 52.51830 18.36273 30703 ft 473 kts 92°
2026-05-07 16:59 52.51942 18.41688 30166 ft 475 kts 93°
2026-05-07 17:00 52.52040 18.47099 29536 ft 473 kts 93°
2026-05-07 17:00 52.52128 18.52478 28914 ft 468 kts 93°
2026-05-07 17:00 52.52208 18.57804 28307 ft 464 kts 93°
2026-05-07 17:00 52.52282 18.63084 27711 ft 461 kts 93°
2026-05-07 17:01 52.52352 18.68336 27141 ft 458 kts 93°
2026-05-07 17:01 52.52419 18.73489 26578 ft 455 kts 93°
2026-05-07 17:01 52.52484 18.78671 26019 ft 452 kts 93°
2026-05-07 17:01 52.52547 18.83816 25474 ft 449 kts 92°
2026-05-07 17:02 52.52607 18.88935 24936 ft 446 kts 92°
2026-05-07 17:02 52.52665 18.94019 24409 ft 443 kts 92°
2026-05-07 17:02 52.52721 18.99066 23893 ft 440 kts 92°
2026-05-07 17:02 52.52774 19.04079 23343 ft 438 kts 92°
2026-05-07 17:03 52.52825 19.09066 22738 ft 435 kts 92°
2026-05-07 17:03 52.52873 19.14019 22149 ft 432 kts 92°
2026-05-07 17:03 52.52919 19.18934 21573 ft 429 kts 92°
2026-05-07 17:03 52.52962 19.23756 21014 ft 426 kts 92°
2026-05-07 17:04 52.53004 19.28619 20459 ft 423 kts 93°
2026-05-07 17:04 52.53043 19.33448 19911 ft 421 kts 93°
2026-05-07 17:04 52.53079 19.38231 19379 ft 418 kts 93°
2026-05-07 17:04 52.53114 19.42996 18849 ft 416 kts 93°
2026-05-07 17:05 52.53147 19.47730 18329 ft 413 kts 93°
2026-05-07 17:05 52.53178 19.52437 17755 ft 411 kts 93°
2026-05-07 17:05 52.53206 19.57111 17168 ft 408 kts 93°
2026-05-07 17:05 52.53233 19.61763 16608 ft 405 kts 93°
2026-05-07 17:06 52.53257 19.66325 16040 ft 403 kts 92°
2026-05-07 17:06 52.53280 19.70913 15496 ft 400 kts 92°
2026-05-07 17:06 52.53300 19.75477 14953 ft 398 kts 92°
2026-05-07 17:06 52.53319 19.80013 14422 ft 396 kts 92°
2026-05-07 17:07 52.53336 19.84513 13898 ft 393 kts 92°
2026-05-07 17:07 52.53352 19.88999 13324 ft 391 kts 92°
2026-05-07 17:07 52.53365 19.93447 12740 ft 388 kts 92°
2026-05-07 17:07 52.53377 19.97867 12172 ft 386 kts 92°
2026-05-07 17:08 52.53387 20.02264 11621 ft 383 kts 92°
2026-05-07 17:08 52.53396 20.06622 11267 ft 376 kts 92°
2026-05-07 17:08 52.53404 20.10854 11009 ft 366 kts 92°
2026-05-07 17:08 52.53410 20.14922 10756 ft 357 kts 92°
2026-05-07 17:09 52.53414 20.18955 10504 ft 349 kts 92°
2026-05-07 17:09 52.53416 20.22916 10257 ft 343 kts 92°
2026-05-07 17:09 52.53416 20.26824 10021 ft 342 kts 92°
2026-05-07 17:09 52.53414 20.30727 9772 ft 341 kts 92°
2026-05-07 17:10 52.53412 20.34618 9509 ft 340 kts 92°
2026-05-07 17:10 52.53408 20.38494 9250 ft 339 kts 92°
2026-05-07 17:10 52.53404 20.42368 8991 ft 339 kts 92°
2026-05-07 17:10 52.53398 20.46226 8680 ft 340 kts 92°
2026-05-07 17:11 52.53392 20.50128 8371 ft 340 kts 92°
2026-05-07 17:11 52.53385 20.54010 8077 ft 339 kts 92°
2026-05-07 17:11 52.53376 20.57858 7772 ft 334 kts 92°
2026-05-07 17:11 52.53366 20.61650 7469 ft 330 kts 92°
2026-05-07 17:12 52.53463 20.65398 7165 ft 327 kts 85°
2026-05-07 17:12 52.53803 20.69089 6857 ft 326 kts 82°
2026-05-07 17:12 52.54190 20.72652 6507 ft 315 kts 82°
2026-05-07 17:12 52.54554 20.76146 6140 ft 304 kts 82°
2026-05-07 17:13 52.54883 20.79532 5771 ft 295 kts 83°
2026-05-07 17:13 52.55189 20.82813 5415 ft 287 kts 83°
2026-05-07 17:13 52.55484 20.86033 5096 ft 278 kts 83°
2026-05-07 17:13 52.55739 20.89121 4824 ft 268 kts 90°
2026-05-07 17:14 52.55372 20.92007 4555 ft 253 kts 121°
2026-05-07 17:14 52.54300 20.94155 4299 ft 237 kts 145°
2026-05-07 17:14 52.52911 20.95452 4056 ft 224 kts 166°
2026-05-07 17:14 52.51427 20.95939 3852 ft 213 kts 175°
2026-05-07 17:15 52.49993 20.96203 3639 ft 204 kts 188°
2026-05-07 17:15 52.48736 20.95409 3466 ft 189 kts 220°
2026-05-07 17:15 52.47934 20.93795 3299 ft 180 kts 244°
2026-05-07 17:15 52.47602 20.91851 3132 ft 173 kts 259°
2026-05-07 17:16 52.47421 20.89979 3011 ft 163 kts 260°
2026-05-07 17:16 52.47255 20.88176 2998 ft 158 kts 260°
2026-05-07 17:16 52.47091 20.86397 2989 ft 158 kts 260°
2026-05-07 17:16 52.46923 20.84566 2766 ft 166 kts 261°
2026-05-07 17:17 52.46755 20.82717 2530 ft 165 kts 261°
2026-05-07 17:17 52.46584 20.80858 2268 ft 164 kts 261°
2026-05-07 17:17 52.46415 20.79019 2018 ft 162 kts 260°
2026-05-07 17:17 52.46249 20.77210 1779 ft 158 kts 261°
2026-05-07 17:18 52.46088 20.75476 1542 ft 150 kts 260°
2026-05-07 17:18 52.45933 20.73820 1236 ft 145 kts 262°
2026-05-07 17:18 52.45764 20.72068 1206 ft 150 kts 262°
2026-05-07 17:18 52.45600 20.70401 820 ft 150 kts 265°
2026-05-07 17:19 52.45451 20.68709 576 ft 151 kts 264°
2026-05-07 17:19 52.45293 20.66998 369 ft 152 kts 262°
2026-05-07 17:19 52.45143 20.65405 338 ft 122 kts 261°
2026-05-07 17:19 52.45037 20.64273 335 ft 78 kts 262°
2026-05-07 17:20 52.44977 20.63634 332 ft 35 kts 261°
2026-05-07 17:20 52.44921 20.63403 335 ft 20 kts 201°
2026-05-07 17:20 52.44815 20.63410 336 ft 10 kts 172°
2026-05-07 17:20 52.44744 20.63428 334 ft 10 kts 171°
2026-05-07 17:21 52.44675 20.63444 332 ft 10 kts 172°
2026-05-07 17:21 52.44631 20.63546 337 ft 17 kts 86°
2026-05-07 17:21 52.44650 20.63773 333 ft 23 kts 81°
2026-05-07 17:21 52.44674 20.64028 337 ft 23 kts 81°
2026-05-07 17:22 52.44698 20.64280 337 ft 22 kts 81°
2026-05-07 17:22 52.44721 20.64525 337 ft 21 kts 81°
2026-05-07 17:22 52.44744 20.64762 335 ft 20 kts 81°
2026-05-07 17:22 52.44759 20.64926 336 ft 5 kts 82°
2026-05-07 17:23 52.44739 20.64957 333 ft 5 kts 187°
2026-05-07 17:23 52.44725 20.64947 337 ft 1 kts 207°
2026-05-07 17:23 52.44717 20.64941 334 ft 1 kts 206°
2026-05-07 17:23 52.44715 20.64939 334 ft 0 kts 206°